EW3582 Weather Reports


time (UTC)temp
C
wind
direction
speed
KPH
gust
KPH
rain 1hr
cm
rain 24hr
cm
rain mn
cm
humidity
%
barometer
mb
20260507060708 10 87 3.2 12.9 0.00 2.08 0.00 81 1010.3
20260507060205 10 353 4.8 14.5 0.00 2.08 0.00 82 1010.2
20260507055704 10 91 4.8 14.5 0.00 2.08 0.00 82 1010.2
20260507055205 10 185 3.2 17.7 0.00 2.08 0.00 82 1010.1
20260507054704 10 333 4.8 17.7 0.00 2.08 0.00 82 1010.0
20260507054204 10 18 6.4 17.7 0.00 2.08 0.00 81 1009.9
20260507053706 10 358 4.8 17.7 0.00 2.08 0.00 81 1009.8
20260507053209 10 44 3.2 12.9 0.00 2.08 0.00 83 1009.8
20260507052705 9 95 3.2 11.3 0.00 2.08 0.00 85 1009.7
20260507051206 9 83 1.6 11.3 0.00 2.08 0.00 84 1009.6
20260507050705 9 91 1.6 11.3 0.00 2.08 0.00 84 1009.6
20260507044706 8 358 4.8 16.1 0.00 2.08 0.00 84 1009.4
20260507044205 8 104 4.8 16.1 0.00 2.08 0.00 85 1009.4
20260507043205 8 348 6.4 20.9 0.00 2.08 0.00 85 1009.1
20260507042706 8 98 6.4 22.5 0.00 2.08 0.00 85 1009.1
20260507042206 8 327 6.4 22.5 0.00 2.08 0.00 85 1009.1
20260507041708 8 80 6.4 17.7 0.00 2.08 0.00 86 1009.1
20260507041204 8 302 6.4 17.7 0.00 2.08 0.00 85 1009.0
20260507040706 8 353 4.8 14.5 0.00 2.08 0.00 85 1008.9
20260507040205 8 54 4.8 12.9 0.00 2.08 0.00 85 1008.9
20260507035204 9 204 4.8 19.3 0.00 2.08 0.00 85 1008.8
20260507034705 9 81 4.8 17.7 0.00 2.08 0.00 86 1008.8
20260507034205 9 37 4.8 17.7 0.00 2.08 0.00 86 1008.8
20260507033706 9 252 3.2 16.1 0.00 2.08 0.00 86 1008.9
20260507033206 9 31 3.2 14.5 0.00 2.08 0.00 86 1009.0
20260507032704 9 177 3.2 14.5 0.00 2.08 0.00 86 1008.9
20260507032207 9 319 4.8 17.7 0.00 2.08 0.00 86 1008.8
20260507031705 9 55 4.8 19.3 0.00 2.08 0.00 86 1008.8
20260507031205 9 348 4.8 19.3 0.00 2.08 0.00 86 1008.7
20260507030704 9 331 3.2 14.5 0.00 2.08 0.00 86 1008.7
20260507030204 9 8 4.8 19.3 0.00 2.08 0.00 86 1008.6
20260507025204 10 318 3.2 16.1 0.00 2.08 0.00 85 1008.6
20260507024205 10 348 3.2 14.5 0.00 2.08 0.00 85 1008.6
20260507023204 10 335 3.2 16.1 0.00 2.08 0.00 84 1008.5
20260507022204 10 64 1.6 12.9 0.00 2.08 0.00 84 1008.5
20260507021704 10 353 1.6 9.7 0.00 2.08 0.00 83 1008.4
20260507021205 10 358 1.6 12.9 0.00 2.08 0.00 83 1008.4
20260507020705 10 324 0.0 12.9 0.00 2.08 0.00 82 1008.4
20260507020207 10 52 0.0 4.8 0.00 2.08 0.00 83 1008.3
20260507015707 10 61 0.0 4.8 0.00 2.08 0.00 82 1008.3
20260507014706 10 163 0.0 4.8 0.00 2.08 0.00 82 1008.3
20260507014206 10 358 0.0 4.8 0.00 2.08 0.00 82 1008.3
20260507013205 10 48 0.0 4.8 0.00 2.08 0.00 82 1008.3
20260507012732 10 38 1.6 6.4 0.00 2.08 0.00 82 1008.2
20260507012207 10 69 3.2 11.3 0.00 2.08 0.00 82 1008.1
20260507010708 10 71 3.2 12.9 0.00 2.08 0.00 83 1008.1
20260507010207 10 281 3.2 12.9 0.00 2.08 0.00 83 1008.0
20260507005728 10 335 3.2 12.9 0.00 2.08 0.00 83 1008.1
20260507005206 10 337 1.6 12.9 0.00 2.08 0.00 83 1008.0
20260507004206 10 353 3.2 16.1 0.00 2.08 0.00 83 1007.9
20260507003706 10 358 3.2 12.9 0.00 2.08 0.00 83 1007.8
20260507003207 10 279 3.2 9.7 0.00 2.08 0.00 83 1007.8
20260507002206 10 320 1.6 9.7 0.00 2.08 0.00 82 1007.8
20260507001705 10 334 3.2 14.5 0.00 2.08 0.00 82 1007.8
20260507001206 10 30 1.6 14.5 0.00 2.08 0.00 82 1007.8
20260507000706 10 37 1.6 11.3 0.00 2.08 0.00 82 1007.9
20260507000205 10 348 1.6 11.3 0.00 2.08 0.00 82 1007.8
20260506235717 10 344 0.0 6.4 0.00 2.08 0.00 82 1007.8
20260506235206 10 91 0.0 4.8 0.00 2.08 0.00 83 1007.7
20260506234705 10 68 0.0 4.8 0.00 2.08 0.00 83 1007.6
20260506234206 10 322 1.6 6.4 0.00 2.08 0.00 83 1007.7
20260506233205 10 341 3.2 16.1 0.00 2.08 0.00 83 1007.6
20260506232712 10 73 3.2 16.1 0.00 2.08 0.00 83 1007.7
20260506232207 10 287 3.2 14.5 0.00 2.08 0.00 83 1007.8
20260506231706 10 324 1.6 8.0 0.00 2.08 0.00 83 1007.8
20260506230207 10 12 3.2 19.3 0.00 2.08 0.00 82 1007.7
20260506225717 10 343 1.6 19.3 0.00 2.08 0.00 82 1007.7
20260506225205 10 46 1.6 16.1 0.00 2.08 0.00 82 1007.4
20260506224705 10 331 1.6 8.0 0.00 2.08 0.00 82 1007.4
20260506224205 10 44 1.6 8.0 0.00 2.08 0.00 82 1007.6
20260506223705 11 50 0.0 4.8 0.00 2.08 0.00 82 1007.6
20260506223207 11 344 0.0 4.8 0.00 2.08 0.00 82 1007.4
20260506222705 11 358 1.6 8.0 0.00 2.08 0.00 82 1007.3
20260506222207 11 353 1.6 12.9 0.00 2.08 0.00 82 1007.3
20260506221709 11 8 1.6 12.9 0.00 2.08 0.00 82 1007.1
20260506221205 11 284 1.6 6.4 0.00 2.08 0.00 82 1007.1
20260506220706 11 318 1.6 12.9 0.00 2.08 0.00 82 1007.0
20260506220208 11 71 1.6 12.9 0.00 2.08 0.00 82 1007.0
20260506215707 11 313 3.2 17.7 0.00 2.08 2.08 82 1007.0
20260506215206 11 348 1.6 17.7 0.00 2.08 2.08 82 1007.0
20260506214707 11 56 1.6 8.0 0.00 2.08 2.08 81 1007.0
20260506214206 11 270 1.6 8.0 0.00 2.08 2.08 81 1007.0
20260506212704 10 88 1.6 14.5 0.00 2.08 2.08 81 1006.8
20260506212203 10 245 1.6 14.5 0.00 2.08 2.08 80 1006.8
20260506211703 10 35 1.6 11.3 0.00 2.08 2.08 79 1006.7
20260506210705 10 63 1.6 9.7 0.00 2.08 2.08 77 1006.7
20260506210203 10 67 0.0 3.2 0.00 2.08 2.08 76 1006.6
20260506205704 10 99 0.0 3.2 0.00 2.08 2.08 76 1006.5
20260506205204 10 44 0.0 4.8 0.00 2.08 2.08 75 1006.4
20260506204705 10 43 0.0 4.8 0.00 2.08 2.08 75 1006.4
20260506204203 10 54 0.0 3.2 0.00 2.08 2.08 74 1006.4
20260506203703 10 98 1.6 11.3 0.00 2.08 2.08 73 1006.5
20260506203204 10 52 0.0 11.3 0.00 2.08 2.08 72 1006.4
20260506202704 10 327 0.0 3.2 0.00 2.08 2.08 71 1006.3
20260506202203 11 328 0.0 3.2 0.00 2.08 2.08 70 1006.2
20260506201703 11 327 0.0 1.6 0.00 2.08 2.08 70 1006.0
20260506201204 11 326 0.0 3.2 0.00 2.08 2.08 69 1006.0
20260506200704 11 281 0.0 3.2 0.00 2.08 2.08 68 1005.9
20260506200203 11 274 0.0 0.0 0.00 2.08 2.08 68 1006.0
20260506195706 11 272 0.0 3.2 0.00 2.08 2.08 68 1006.1
20260506195203 11 272 0.0 4.8 0.00 2.08 2.08 68 1005.9
20260506194704 11 240 0.0 4.8 0.00 2.08 2.08 68 1005.9
20260506193704 11 239 0.0 0.0 0.00 2.08 2.08 68 1006.0
20260506193203 11 238 0.0 0.0 0.03 2.08 2.08 68 1006.0
20260506192703 11 239 0.0 1.6 0.03 2.08 2.08 69 1006.1
20260506192203 12 237 0.0 1.6 0.05 2.11 2.08 69 1005.9
20260506191703 12 243 0.0 1.6 0.10 2.11 2.08 69 1005.9
20260506191204 12 247 0.0 1.6 0.15 2.11 2.08 69 1006.0
20260506190708 12 353 0.0 1.6 0.18 2.11 2.08 69 1005.9
20260506190203 12 353 0.0 0.0 0.23 2.11 2.08 70 1006.0
20260506185704 12 245 0.0 0.0 0.23 2.11 2.08 70 1006.0
20260506184205 12 245 1.6 6.4 0.30 2.11 2.08 70 1005.5
20260506183703 12 353 3.2 9.7 0.33 2.11 2.06 71 1005.4
20260506183206 12 353 1.6 9.7 0.30 2.08 2.06 71 1005.3
20260506182704 12 358 0.0 0.0 0.30 2.08 2.03 72 1005.1
20260506181705 12 358 0.0 1.6 0.23 2.01 1.98 74 1005.1
20260506181203 12 358 0.0 1.6 0.20 1.96 1.93 75 1004.9
20260506180706 12 358 0.0 4.8 0.15 1.93 1.91 75 1004.8
20260506180203 12 358 1.6 4.8 0.13 1.88 1.85 76 1004.7
20260506175704 12 358 1.6 3.2 0.10 1.85 1.83 77 1004.5
20260506175203 12 358 1.6 3.2 0.05 1.83 1.80 78 1004.4
20260506174706 12 358 1.6 4.8 0.05 1.83 1.78 80 1004.2
20260506174205 12 358 3.2 4.8 0.05 1.91 1.78 81 1003.9
20260506173706 12 6 1.6 4.8 0.03 1.88 1.75 81 1003.7
20260506173205 13 24 0.0 4.8 0.03 1.88 1.75 82 1003.7
20260506172706 13 32 0.0 4.8 0.03 1.88 1.75 82 1003.6
20260506172206 13 33 0.0 4.8 0.00 1.85 1.75 82 1003.7
20260506171707 13 34 0.0 3.2 0.00 1.85 1.75 83 1003.6
20260506171205 13 34 0.0 3.2 0.00 1.85 1.75 83 1003.6
20260506170704 14 34 0.0 3.2 0.00 1.85 1.75 84 1003.6
20260506170204 14 91 0.0 4.8 0.00 1.85 1.75 84 1003.5
20260506165706 14 94 0.0 4.8 0.00 1.85 1.75 84 1003.4
20260506165209 15 112 0.0 0.0 0.00 1.85 1.75 83 1003.4
20260506164707 15 113 0.0 1.6 0.00 1.85 1.75 84 1003.5
20260506164205 15 112 0.0 1.6 0.00 1.85 1.75 84 1003.5
20260506163704 15 114 0.0 3.2 0.00 1.85 1.75 83 1003.4
20260506163204 16 113 1.6 4.8 0.00 1.85 1.75 82 1003.5
20260506162705 16 116 1.6 9.7 0.00 1.85 1.75 75 1003.5
20260506161704 16 123 1.6 6.4 0.00 1.85 1.75 73 1003.6
20260506161205 16 91 3.2 6.4 0.00 1.85 1.75 74 1003.5
20260506160706 16 109 3.2 8.0 0.00 1.85 1.75 73 1003.6
20260506160204 16 137 3.2 8.0 0.00 1.85 1.75 74 1003.7
20260506155704 16 95 1.6 8.0 0.00 1.85 1.75 73 1003.8
20260506155218 17 110 3.2 9.7 0.00 1.85 1.75 71 1003.8
20260506154705 17 101 3.2 9.7 0.00 1.85 1.75 70 1003.9
20260506153708 17 100 6.4 12.9 0.00 1.85 1.75 71 1004.1
20260506153205 17 114 6.4 12.9 0.00 1.85 1.75 72 1003.9
20260506152705 17 116 8.0 14.5 0.00 1.85 1.75 71 1004.1
20260506152205 17 83 8.0 16.1 0.00 1.85 1.75 73 1004.1
20260506151204 16 123 4.8 14.5 0.00 1.85 1.75 79 1004.2
20260506150707 16 94 1.6 12.9 0.00 1.85 1.75 81 1004.3
20260506150205 16 135 1.6 4.8 0.00 1.85 1.75 83 1004.3
20260506145705 15 75 1.6 4.8 0.00 1.85 1.75 83 1004.4
20260506145204 15 58 4.8 12.9 0.00 1.85 1.75 83 1004.4
20260506144706 15 91 3.2 12.9 0.00 1.85 1.75 83 1004.5
20260506144204 15 80 3.2 11.3 0.03 1.85 1.75 83 1004.6
20260506143205 15 62 4.8 12.9 0.03 1.85 1.75 82 1004.6
20260506141705 15 121 8.0 14.5 0.05 1.85 1.75 81 1004.7
20260506141205 16 87 6.4 14.5 0.08 1.85 1.75 81 1004.7
20260506140705 16 95 4.8 11.3 0.08 1.85 1.75 82 1004.8
20260506140204 16 116 4.8 12.9 0.10 1.85 1.75 82 1004.7
20260506135704 15 112 8.0 12.9 0.13 1.85 1.75 83 1004.7
20260506135204 15 112 8.0 14.5 0.15 1.85 1.75 83 1004.7
20260506134706 15 101 6.4 17.7 0.15 1.85 1.75 83 1004.9
20260506134206 15 85 8.0 17.7 0.15 1.83 1.73 84 1004.9
20260506133704 15 100 9.7 17.7 0.18 1.83 1.73 84 1005.0
20260506133203 15 102 8.0 17.7 0.20 1.83 1.73 84 1004.9
20260506132704 15 79 6.4 14.5 0.20 1.83 1.70 84 1004.9
20260506132204 15 66 8.0 14.5 0.23 1.83 1.70 84 1005.0
20260506131705 15 141 8.0 17.7 0.33 1.80 1.68 84 1004.9
20260506131204 14 100 6.4 17.7 0.89 1.78 1.65 84 1004.9
20260506130705 14 103 8.0 12.9 1.45 1.78 1.65 83 1005.0
20260506130205 14 74 6.4 12.9 1.65 1.75 1.65 82 1005.0
20260506125707 14 88 3.2 11.3 1.63 1.75 1.63 73 1005.0
20260506124706 13 66 1.6 6.4 1.57 1.70 1.57 66 1005.2
20260506124205 12 76 1.6 6.4 1.55 1.68 1.55 69 1005.3
20260506123705 11 353 0.0 4.8 1.55 1.65 1.55 74 1005.4
20260506123203 11 353 0.0 4.8 1.52 1.65 1.52 79 1005.5
20260506122703 11 27 4.8 14.5 1.50 1.63 1.50 82 1005.5
20260506121704 13 97 4.8 19.3 1.35 1.45 1.27 83 1005.4
20260506121203 15 162 4.8 12.9 0.76 0.89 0.71 83 1005.8
20260506120700 16 75 8.0 12.9 0.18 0.30 0.10 76 1005.4
20260506115648 17 110 8.0 11.3 0.00 0.13 0.00 67 1005.3
20260506114640 18 96 8.0 16.1 0.00 0.13 0.00 64 1005.3
20260506114140 18 108 6.4 11.3 0.00 0.13 0.00 65 1005.3
20260506113640 18 93 6.4 14.5 0.00 0.13 0.00 67 1005.5
20260506113141 18 77 4.8 14.5 0.00 0.13 0.00 67 1005.4
20260506112642 18 59 3.2 11.3 0.00 0.13 0.00 64 1005.5
20260506111636 17 92 4.8 11.3 0.00 0.13 0.00 65 1005.6
20260506111136 18 62 4.8 11.3 0.00 0.13 0.00 63 1005.6
20260506110638 18 81 4.8 11.3 0.00 0.13 0.00 66 1005.6
20260506110136 18 67 3.2 9.7 0.00 0.13 0.00 64 1005.6
20260506105633 18 112 3.2 12.9 0.00 0.13 0.00 64 1005.8
20260506105135 18 68 3.2 12.9 0.00 0.13 0.00 63 1005.8
20260506104133 18 33 3.2 11.3 0.00 0.13 0.00 66 1005.9
20260506102632 17 107 3.2 6.4 0.00 0.13 0.00 67 1006.0
20260506102132 17 126 1.6 6.4 0.00 0.13 0.00 66 1006.1
20260506101629 17 82 3.2 12.9 0.00 0.13 0.00 67 1006.0
20260506101123 17 94 4.8 12.9 0.00 0.13 0.00 65 1006.1
20260506100617 17 95 3.2 11.3 0.00 0.13 0.00 66 1006.2
20260506100120 17 80 4.8 14.5 0.00 0.13 0.00 69 1006.3
20260506095607 17 348 8.0 14.5 0.00 0.13 0.00 67 1006.3
20260506095107 17 67 6.4 14.5 0.00 0.13 0.00 71 1006.3
20260506094606 17 67 8.0 16.1 0.00 0.13 0.00 69 1006.4
20260506093608 17 82 3.2 14.5 0.00 0.13 0.00 72 1006.6
20260506093108 17 73 3.2 12.9 0.00 0.13 0.00 71 1006.5
20260506092608 17 53 4.8 12.9 0.00 0.13 0.00 72 1006.5
20260506092108 17 76 8.0 14.5 0.00 0.13 0.00 70 1006.5
20260506091107 16 76 9.7 14.5 0.00 0.13 0.00 75 1006.5
20260506090609 16 110 6.4 12.9 0.00 0.13 0.00 72 1006.5
20260506090122 16 103 3.2 12.9 0.00 0.13 0.00 72 1006.6
20260506085607 16 85 1.6 6.4 0.00 0.13 0.00 72 1006.6
20260506085110 16 85 3.2 6.4 0.00 0.13 0.00 72 1006.6
20260506084610 16 60 3.2 6.4 0.00 0.13 0.00 74 1006.6
20260506084106 16 107 4.8 11.3 0.00 0.13 0.00 74 1006.6
20260506083605 15 68 6.4 11.3 0.00 0.13 0.00 77 1006.6
20260506083108 15 92 4.8 11.3 0.00 0.13 0.00 75 1006.6
20260506081627 15 94 6.4 16.1 0.00 0.13 0.00 77 1006.8
20260506081106 15 75 6.4 16.1 0.00 0.13 0.00 76 1006.7
20260506080603 15 94 4.8 14.5 0.00 0.13 0.00 77 1006.7
20260506080116 15 100 0.0 9.7 0.00 0.13 0.00 76 1006.7
20260506073059 15 294 3.2 11.3 0.00 0.13 0.00 76 1006.6
20260506072558 14 73 3.2 14.5 0.00 0.13 0.00 76 1006.7
20260506072059 14 15 3.2 14.5 0.00 0.13 0.00 77 1006.7
20260506071600 14 106 3.2 9.7 0.00 0.13 0.00 78 1006.8
20260506071100 13 31 3.2 8.0 0.00 0.13 0.00 78 1006.8
20260506070600 13 85 3.2 14.5 0.00 0.13 0.00 79 1006.8
20260506070114 13 331 4.8 16.1 0.00 0.13 0.00 79 1006.7
20260506062047 12 320 1.6 8.0 0.00 0.13 0.00 81 1006.8
20260506061544 12 353 1.6 9.7 0.00 0.13 0.00 83 1006.6